| time (UTC) | temp F | wind direction | speed MPH | gust MPH | rain 1hr in | rain 24hr in | rain mn in | humidity % | barometer mb |
| 20260505123817 | 68 | 179 | 1.0 | 2.0 | 0.00 | 0.00 | 0.00 | 44 | 757.5 |
| 20260505122817 | 67 | 179 | 1.0 | 4.0 | 0.00 | 0.00 | 0.00 | 45 | 757.5 |
| 20260505121817 | 66 | 41 | 1.0 | 2.0 | 0.00 | 0.00 | 0.00 | 46 | 757.5 |
| 20260505120148 | 64 | 41 | 1.0 | 3.0 | 0.00 | 0.00 | 0.00 | 50 | 757.5 |
| 20260505115148 | 62 | 0 | 0.0 | 3.0 | 0.00 | 0.00 | 0.00 | 52 | 757.5 |
| 20260505114149 | 60 | 0 | 0.0 | 2.0 | 0.00 | 0.00 | 0.00 | 55 | 757.5 |
| 20260505112525 | 58 | 56 | 1.0 | 4.0 | 0.00 | 0.00 | 0.00 | 58 | 757.5 |
| 20260505111525 | 57 | 0 | 0.0 | 0.0 | 0.00 | 0.00 | 0.00 | 59 | 757.5 |
| 20260505110525 | 56 | 0 | 0.0 | 0.0 | 0.00 | 0.00 | 0.00 | 60 | 757.5 |
| 20260505101234 | 56 | 0 | 0.0 | 2.0 | 0.00 | 0.00 | 0.00 | 60 | 757.5 |
| 20260505100233 | 57 | 0 | 0.0 | 0.0 | 0.00 | 0.00 | 0.00 | 59 | 757.5 |
| 20260505095233 | 57 | 0 | 0.0 | 2.0 | 0.00 | 0.00 | 0.00 | 58 | 757.5 |
| 20260505093608 | 57 | 0 | 0.0 | 2.0 | 0.00 | 0.00 | 0.00 | 58 | 757.5 |
| 20260505092609 | 57 | 39 | 1.0 | 2.0 | 0.00 | 0.00 | 0.00 | 58 | 757.5 |
| 20260505091609 | 57 | 0 | 0.0 | 2.0 | 0.00 | 0.00 | 0.00 | 57 | 757.5 |
| 20260505085955 | 58 | 0 | 0.0 | 0.0 | 0.00 | 0.00 | 0.00 | 55 | 757.5 |
| 20260505084955 | 59 | 0 | 0.0 | 0.0 | 0.00 | 0.00 | 0.00 | 54 | 757.5 |
| 20260505083956 | 60 | 0 | 0.0 | 0.0 | 0.00 | 0.00 | 0.00 | 54 | 757.5 |
| 20260505082408 | 60 | 0 | 0.0 | 0.0 | 0.00 | 0.00 | 0.00 | 53 | 757.5 |
| 20260505081408 | 60 | 0 | 0.0 | 0.0 | 0.00 | 0.00 | 0.00 | 52 | 757.5 |
| 20260505080409 | 61 | 0 | 0.0 | 0.0 | 0.00 | 0.00 | 0.00 | 52 | 757.5 |
| 20260505074752 | 61 | 0 | 0.0 | 0.0 | 0.00 | 0.00 | 0.00 | 51 | 757.5 |
| 20260505073752 | 61 | 0 | 0.0 | 0.0 | 0.00 | 0.00 | 0.00 | 51 | 757.5 |
| 20260505072751 | 61 | 0 | 0.0 | 0.0 | 0.00 | 0.00 | 0.00 | 50 | 757.5 |
| 20260505071139 | 61 | 0 | 0.0 | 1.0 | 0.00 | 0.00 | 0.00 | 50 | 757.5 |
| 20260505070139 | 62 | 160 | 1.0 | 2.0 | 0.00 | 0.00 | 0.00 | 49 | 757.5 |
| 20260505065139 | 62 | 50 | 1.0 | 4.0 | 0.00 | 0.00 | 0.00 | 49 | 757.5 |
| 20260505063536 | 62 | 0 | 0.0 | 0.0 | 0.00 | 0.00 | 0.00 | 48 | 757.5 |
| 20260505062536 | 62 | 3 | 1.0 | 3.0 | 0.00 | 0.00 | 0.00 | 48 | 757.5 |
| 20260505061536 | 62 | 213 | 2.0 | 3.0 | 0.00 | 0.00 | 0.00 | 47 | 757.5 |
| 20260505055931 | 62 | 224 | 2.0 | 5.0 | 0.00 | 0.00 | 0.00 | 46 | 757.5 |
| 20260505054931 | 62 | 212 | 3.0 | 7.0 | 0.00 | 0.00 | 0.00 | 46 | 757.5 |
| 20260505053931 | 62 | 216 | 3.0 | 6.0 | 0.00 | 0.00 | 0.00 | 45 | 757.5 |
| 20260505052326 | 63 | 206 | 3.0 | 6.0 | 0.00 | 0.00 | 0.00 | 44 | 757.5 |
| 20260505051327 | 63 | 218 | 3.0 | 6.0 | 0.00 | 0.00 | 0.00 | 44 | 757.5 |
| 20260505050326 | 63 | 210 | 4.0 | 6.0 | 0.00 | 0.00 | 0.00 | 43 | 757.5 |
| 20260505041141 | 63 | 216 | 3.0 | 5.0 | 0.00 | 0.00 | 0.00 | 39 | 757.5 |
| 20260505040141 | 63 | 207 | 3.0 | 5.0 | 0.00 | 0.00 | 0.00 | 39 | 757.5 |
| 20260505035140 | 63 | 190 | 2.0 | 5.0 | 0.00 | 0.00 | 0.00 | 39 | 757.5 |
| 20260505033546 | 63 | 206 | 2.0 | 4.0 | 0.00 | 0.00 | 0.00 | 38 | 757.5 |
| 20260505032546 | 63 | 204 | 2.0 | 3.0 | 0.00 | 0.00 | 0.00 | 38 | 757.5 |
| 20260505031546 | 63 | 204 | 2.0 | 3.0 | 0.00 | 0.00 | 0.00 | 38 | 757.5 |
| 20260505030001 | 63 | 204 | 2.0 | 4.0 | 0.00 | 0.00 | 0.00 | 37 | 757.5 |
| 20260505025001 | 64 | 208 | 2.0 | 4.0 | 0.00 | 0.00 | 0.00 | 37 | 757.5 |
| 20260505024000 | 64 | 211 | 2.0 | 3.0 | 0.00 | 0.00 | 0.00 | 36 | 757.5 |
| 20260505022416 | 64 | 211 | 2.0 | 3.0 | 0.00 | 0.00 | 0.00 | 36 | 757.5 |
| 20260505021416 | 64 | 199 | 2.0 | 4.0 | 0.00 | 0.00 | 0.00 | 36 | 757.5 |
| 20260505020415 | 64 | 206 | 2.0 | 4.0 | 0.00 | 0.00 | 0.00 | 36 | 757.5 |
| 20260505014827 | 64 | 210 | 2.0 | 4.0 | 0.00 | 0.00 | 0.00 | 36 | 757.5 |
| 20260505013827 | 65 | 210 | 2.0 | 3.0 | 0.00 | 0.00 | 0.00 | 35 | 757.5 |
| 20260505012826 | 65 | 214 | 1.0 | 3.0 | 0.00 | 0.00 | 0.00 | 35 | 757.5 |
| 20260505011258 | 65 | 214 | 1.0 | 3.0 | 0.00 | 0.00 | 0.00 | 35 | 757.5 |
| 20260505010258 | 65 | 214 | 1.0 | 3.0 | 0.00 | 0.00 | 0.00 | 34 | 757.5 |
| 20260505005258 | 65 | 214 | 2.0 | 3.0 | 0.00 | 0.00 | 0.00 | 34 | 757.5 |
| 20260505003719 | 66 | 214 | 1.0 | 3.0 | 0.00 | 0.00 | 0.00 | 33 | 757.5 |
| 20260505002719 | 67 | 213 | 1.0 | 3.0 | 0.00 | 0.00 | 0.00 | 32 | 757.5 |
| 20260505001719 | 67 | 214 | 1.0 | 3.0 | 0.00 | 0.00 | 0.00 | 31 | 757.5 |
| 20260505000142 | 68 | 207 | 2.0 | 3.0 | 0.00 | 0.00 | 0.00 | 31 | 757.5 |
| 20260504235142 | 68 | 205 | 2.0 | 4.0 | 0.00 | 0.00 | 0.00 | 30 | 757.5 |
| 20260504234142 | 69 | 216 | 3.0 | 6.0 | 0.00 | 0.00 | 0.00 | 29 | 757.5 |
| 20260504232625 | 69 | 202 | 2.0 | 5.0 | 0.00 | 0.00 | 0.00 | 29 | 757.5 |
| 20260504231626 | 70 | 219 | 2.0 | 4.0 | 0.00 | 0.00 | 0.00 | 28 | 757.5 |
| 20260504230625 | 70 | 216 | 3.0 | 7.0 | 0.00 | 0.00 | 0.00 | 27 | 757.5 |
| 20260504225020 | 71 | 205 | 2.0 | 7.0 | 0.00 | 0.00 | 0.00 | 27 | 757.5 |
| 20260504224020 | 71 | 193 | 2.0 | 4.0 | 0.00 | 0.00 | 0.00 | 27 | 757.5 |
| 20260504223021 | 71 | 208 | 3.0 | 4.0 | 0.00 | 0.00 | 0.00 | 27 | 757.5 |
| 20260504221435 | 72 | 207 | 1.0 | 3.0 | 0.00 | 0.00 | 0.00 | 28 | 757.5 |
| 20260504220436 | 72 | 202 | 3.0 | 6.0 | 0.00 | 0.00 | 0.00 | 28 | 757.5 |
| 20260504215436 | 72 | 214 | 2.0 | 5.0 | 0.00 | 0.00 | 0.00 | 26 | 757.5 |
| 20260504213844 | 72 | 210 | 2.0 | 7.0 | 0.00 | 0.00 | 0.00 | 27 | 757.5 |
| 20260504212845 | 72 | 199 | 2.0 | 5.0 | 0.00 | 0.00 | 0.00 | 28 | 757.5 |
| 20260504211845 | 72 | 207 | 2.0 | 5.0 | 0.00 | 0.00 | 0.00 | 28 | 757.5 |
| 20260504210243 | 73 | 223 | 3.0 | 5.0 | 0.00 | 0.00 | 0.00 | 26 | 757.5 |
| 20260504205243 | 74 | 221 | 3.0 | 6.0 | 0.00 | 0.00 | 0.00 | 25 | 757.5 |
| 20260504204244 | 74 | 208 | 3.0 | 7.0 | 0.00 | 0.00 | 0.00 | 25 | 757.5 |
| 20260504202643 | 74 | 205 | 1.0 | 5.0 | 0.00 | 0.00 | 0.00 | 26 | 757.5 |
| 20260504201642 | 73 | 207 | 1.0 | 6.0 | 0.00 | 0.00 | 0.00 | 24 | 757.5 |
| 20260504200642 | 73 | 211 | 3.0 | 6.0 | 0.00 | 0.00 | 0.00 | 25 | 757.5 |
| 20260504195030 | 73 | 230 | 4.0 | 7.0 | 0.00 | 0.00 | 0.00 | 24 | 757.5 |
| 20260504194030 | 72 | 198 | 2.0 | 6.0 | 0.00 | 0.00 | 0.00 | 26 | 757.5 |
| 20260504193030 | 72 | 221 | 6.0 | 11.0 | 0.00 | 0.00 | 0.00 | 23 | 757.5 |
| 20260504191411 | 73 | 231 | 4.0 | 9.0 | 0.00 | 0.00 | 0.00 | 23 | 757.5 |
| 20260504190411 | 73 | 248 | 1.0 | 8.0 | 0.00 | 0.00 | 0.00 | 23 | 757.5 |
| 20260504185411 | 73 | 211 | 3.0 | 6.0 | 0.00 | 0.00 | 0.00 | 24 | 757.5 |
| 20260504183744 | 73 | 207 | 2.0 | 5.0 | 0.00 | 0.00 | 0.00 | 23 | 757.5 |
| 20260504182744 | 72 | 232 | 4.0 | 7.0 | 0.00 | 0.00 | 0.00 | 24 | 757.5 |
| 20260504181744 | 72 | 222 | 3.0 | 10.0 | 0.00 | 0.00 | 0.00 | 23 | 757.5 |
| 20260504180113 | 72 | 202 | 3.0 | 7.0 | 0.00 | 0.00 | 0.00 | 25 | 757.5 |
| 20260504175114 | 72 | 219 | 2.0 | 6.0 | 0.00 | 0.00 | 0.00 | 24 | 757.5 |
| 20260504174113 | 71 | 210 | 3.0 | 5.0 | 0.00 | 0.00 | 0.00 | 26 | 757.5 |
| 20260504172458 | 71 | 217 | 4.0 | 7.0 | 0.00 | 0.00 | 0.00 | 25 | 757.5 |
| 20260504171458 | 71 | 220 | 3.0 | 7.0 | 0.00 | 0.00 | 0.00 | 25 | 757.5 |
| 20260504170458 | 70 | 192 | 3.0 | 5.0 | 0.00 | 0.00 | 0.00 | 25 | 757.5 |
| 20260504160145 | 68 | 222 | 4.0 | 6.0 | 0.00 | 0.00 | 0.00 | 27 | 757.5 |
| 20260504141202 | 62 | 213 | 3.0 | 6.0 | 0.00 | 0.00 | 0.00 | 33 | 757.5 |
| 20260504140201 | 62 | 207 | 3.0 | 6.0 | 0.00 | 0.00 | 0.00 | 34 | 757.5 |